Temp
0 -0 0 -1 -2 -2 -2 -1 -1 -1 -1 -1 -2 -2 -1 -1 -1 -0 2 2 3 4 5 6 6 7 7 8 8 8 8 9 10 10 10 10 10 10 10 10 10 11 11 11 11
-0 -1 -1 -2 -2 -2 -2 -1 -1 -2 -2 -2 -2 -2 -1 -1 -1 0 0 1 2 3 4 5 6 6 7 7 8 8 8 9 9 10 10 10 10 10 10 10 10 11 11 11 11
-1 -2 -1 -2 -2 -2 -2 -2 -2 -2 -2 -2 -2 -2 -2 -1 -1 -0 -1 0 1 3 4 4 5 5 6 7 8 8 9 9 9 10 10 10 10 10 10 10 10 10 10 11 11
-1 -1 -2 -2 -2 -2 -2 -2 -2 -2 -2 -2 -2 -2 -2 -2 -2 -1 -1 -0 0 2 3 3 4 5 6 6 7 8 8 8 9 10 10 10 10 10 10 10 10 10 10 10 10
-1 -2 -2 -2 -2 -2 -1 -2 -2 -2 -2 -2 -3 -3 -2 -2 -2 -1 -1 -1 0 1 2 3 3 4 5 6 7 7 8 8 9 9 9 9 9 10 10 10 10 10 10 10 10
-1 -1 -2 -2 -2 -2 -2 -2 -3 -2 -3 -3 -3 -3 -2 -2 -2 -2 -1 -0 -0 1 1 2 3 4 4 5 6 7 7 8 8 9 8 8 9 10 10 10 10 10 10 10 10
-0 -0 -1 -2 -2 -3 -4 -3 -3 -3 -3 -3 -3 -3 -3 -3 -2 -2 -2 -1 -1 0 1 2 3 3 4 5 5 6 6 7 8 8 8 8 9 10 10 10 10 10 10 10 10
-0 -1 -1 -2 -3 -3 -4 -4 -4 -4 -3 -3 -4 -3 -3 -2 -2 -2 -1 -1 -0 0 1 1 2 3 3 4 5 5 5 6 7 8 8 8 10 10 10 10 10 10 10 10 10
1 -1 -1 -2 -2 -3 -4 -4 -4 -4 -4 -4 -4 -4 -3 -3 -2 -2 -1 -1 -0 0 1 1 2 2 3 4 5 4 5 6 7 8 8 8 9 9 9 10 10 10 10 10 10
1 0 -0 -1 -2 -3 -3 -4 -4 -4 -4 -4 -4 -3 -3 -3 -2 -2 -1 -1 0 1 1 1 1 2 3 4 4 4 6 6 7 8 8 8 9 9 9 9 9 9 10 10 10
1 1 1 0 -1 -2 -3 -3 -4 -4 -4 -4 -4 -3 -3 -2 -2 -1 -1 -0 -0 0 1 1 1 2 3 4 4 5 6 6 7 7 8 8 9 9 9 9 9 9 9 9 9
1 1 1 0 0 -1 -1 -2 -3 -4 -4 -4 -4 -3 -3 -2 -2 -1 -1 -0 0 0 0 1 2 3 3 4 5 5 5 6 6 7 7 8 9 9 8 9 9 9 9 9 9
2 1 1 0 0 -0 -1 -1 -2 -2 -4 -3 -3 -3 -2 -2 -1 -1 -1 -0 0 -0 1 2 2 3 3 4 4 5 5 6 6 7 7 7 8 9 9 9 9 9 9 9 9
2 2 1 1 0 0 -0 -1 -1 -1 -1 -2 -2 -2 -2 -2 -1 -1 -1 -0 -0 0 1 2 2 3 4 4 4 5 5 6 6 6 7 7 7 9 10 9 9 10 9 9 8
2 2 2 2 1 1 0 -0 -0 -1 -3 -0 -1 -1 -1 -1 -1 -1 -0 0 1 1 2 2 2 3 4 4 4 5 5 6 6 6 7 7 6 9 10 10 10 9 9 8 7
2 3 3 2 2 1 1 1 0 -0 -2 -0 -0 -0 -0 -0 -0 0 0 1 1 2 3 3 3 3 3 4 4 5 5 5 6 6 2 6 6 8 9 9 9 9 8 7 7
3 3 3 3 2 2 1 1 1 0 -0 -0 -0 -0 0 0 0 1 1 1 2 2 2 3 3 4 4 4 4 5 5 5 1 -1 -2 5 4 8 8 8 8 8 7 6 6
3 3 4 4 3 3 2 2 1 -0 -0 0 0 1 1 1 1 1 1 2 2 3 3 3 3 3 4 4 5 5 5 5 0 -2 -1 3 4 8 8 8 7 7 6 6 6
4 3 3 4 3 4 3 3 2 1 1 1 1 1 1 1 2 1 2 2 3 3 4 4 3 4 4 4 4 4 4 4 4 1 1 4 6 8 8 7 7 6 6 6 5
4 4 4 4 3 4 4 4 2 2 2 2 2 2 2 2 2 2 2 3 3 3 4 4 4 3 3 4 4 4 4 4 4 2 2 2 4 8 7 7 6 6 6 6 5
4 5 4 4 4 4 4 3 3 2 2 2 2 2 2 2 2 3 3 3 3 4 4 4 4 3 3 4 4 4 4 4 4 3 -0 -0 5 7 7 6 6 6 6 5 5
4 4 5 4 4 4 3 3 3 3 3 3 3 3 2 2 2 2 3 3 4 4 4 4 4 4 4 4 4 4 4 3 4 2 2 1 4 6 6 5 5 5 5 5 4
5 4 4 4 4 4 3 3 3 2 2 3 3 3 3 3 3 3 3 3 3 3 3 3 3 3 3 3 3 3 3 3 3 2 2 -0 4 5 5 5 5 4 4 4 3
4 4 4 4 4 4 4 3 3 3 3 2 2 2 3 3 3 3 3 3 3 3 3 3 3 4 4 4 4 3 4 3 2 2 2 3 5 5 4 4 3 3 3 2 2
4 4 4 4 3 3 3 3 3 3 3 3 3 2 2 3 3 3 3 3 3 3 3 3 3 3 3 3 3 3 3 3 3 4 2 4 3 3 2 2 2 1 1 1 1
3 3 3 4 3 3 3 3 2 2 3 2 2 2 2 2 2 3 3 3 3 3 3 3 3 3 3 3 3 3 3 3 3 3 2 2 4 3 2 1 0 0 0 -0 -1
3 3 3 3 3 3 3 3 3 2 2 2 2 2 2 2 1 1 1 1 1 1 1 1 2 1 1 2 1 2 5 4 4 4 3 2 3 1 1 0 -0 -1 -1 -2 -2
Height
3078 3072 3066 3061 3063 3064 3065 3065 3067 3068 3069 3070 3073 3075 3077 3079 3081 3083 3089 3098 3102 3106 3111 3118 3124 3130 3137 3141 3146 3150 3154 3154 3160 3162 3162 3163 3164 3167 3168 3168 3170 3171 3171 3172 3173
3077 3072 3068 3064 3064 3064 3063 3064 3064 3064 3065 3067 3069 3072 3075 3077 3078 3080 3090 3091 3098 3103 3108 3113 3119 3125 3132 3137 3142 3145 3149 3153 3157 3160 3161 3162 3163 3166 3167 3167 3169 3170 3170 3171 3171
3077 3074 3071 3066 3064 3063 3063 3062 3062 3062 3063 3064 3067 3069 3072 3074 3076 3081 3084 3089 3094 3099 3104 3109 3115 3121 3127 3133 3137 3142 3147 3151 3155 3157 3159 3162 3163 3164 3166 3166 3168 3169 3169 3170 3170
3080 3076 3073 3070 3067 3064 3062 3060 3060 3060 3061 3063 3064 3067 3070 3072 3078 3078 3082 3087 3090 3096 3101 3105 3111 3118 3124 3129 3134 3141 3144 3148 3153 3155 3157 3160 3162 3162 3164 3166 3166 3167 3168 3169 3169
3082 3078 3074 3071 3068 3064 3061 3059 3058 3058 3059 3061 3063 3065 3069 3072 3075 3076 3081 3085 3088 3093 3098 3103 3110 3116 3122 3127 3133 3137 3142 3146 3150 3152 3155 3158 3160 3161 3161 3163 3164 3165 3166 3167 3168
3085 3080 3076 3073 3070 3064 3058 3053 3056 3057 3058 3060 3062 3065 3069 3073 3075 3076 3079 3083 3087 3092 3097 3102 3109 3115 3121 3126 3131 3135 3139 3144 3148 3150 3153 3156 3158 3158 3159 3160 3161 3162 3164 3165 3165
3088 3084 3080 3075 3071 3067 3061 3057 3057 3057 3058 3059 3062 3064 3068 3072 3075 3077 3079 3082 3086 3091 3096 3103 3108 3115 3118 3124 3128 3132 3138 3141 3145 3148 3150 3153 3154 3153 3156 3157 3158 3160 3161 3162 3162
3089 3086 3082 3079 3074 3070 3066 3062 3059 3059 3058 3057 3061 3065 3068 3071 3074 3077 3079 3082 3085 3090 3096 3101 3107 3113 3118 3121 3127 3131 3135 3138 3142 3146 3148 3150 3149 3152 3153 3155 3156 3157 3158 3158 3159
3090 3088 3084 3081 3077 3073 3070 3066 3063 3061 3059 3058 3061 3065 3069 3072 3075 3077 3079 3083 3086 3091 3097 3102 3107 3112 3117 3120 3126 3128 3131 3135 3140 3143 3145 3147 3147 3149 3150 3152 3153 3154 3154 3155 3156
3093 3089 3087 3084 3080 3076 3073 3070 3065 3062 3060 3062 3063 3069 3070 3073 3075 3078 3080 3083 3086 3092 3098 3103 3108 3112 3115 3119 3121 3125 3130 3134 3137 3140 3141 3143 3144 3147 3148 3149 3150 3151 3151 3151 3151
3094 3092 3089 3086 3084 3081 3078 3075 3074 3069 3067 3067 3068 3068 3071 3074 3076 3078 3081 3084 3088 3093 3097 3103 3108 3111 3116 3121 3124 3127 3131 3132 3135 3138 3139 3141 3141 3144 3144 3145 3146 3147 3147 3147 3147
3094 3093 3091 3090 3087 3084 3082 3080 3076 3075 3071 3070 3071 3073 3074 3076 3078 3080 3083 3087 3090 3095 3099 3106 3110 3114 3117 3121 3124 3127 3130 3132 3134 3136 3138 3137 3137 3140 3139 3140 3142 3143 3143 3143 3143
3093 3092 3091 3090 3089 3087 3085 3083 3082 3079 3077 3074 3075 3077 3079 3081 3081 3084 3087 3089 3093 3097 3101 3106 3111 3114 3117 3121 3124 3127 3129 3131 3134 3134 3136 3136 3133 3135 3135 3136 3137 3138 3138 3138 3139
3093 3091 3091 3089 3090 3087 3086 3084 3083 3082 3083 3085 3084 3084 3084 3084 3086 3088 3089 3093 3096 3101 3105 3109 3112 3115 3118 3121 3124 3126 3128 3130 3132 3134 3135 3136 3132 3129 3130 3131 3133 3134 3134 3134 3134
3094 3091 3089 3088 3087 3086 3087 3084 3083 3084 3085 3089 3087 3087 3086 3088 3090 3091 3094 3096 3098 3101 3107 3110 3111 3115 3117 3120 3123 3126 3126 3129 3131 3133 3133 3133 3134 3124 3126 3127 3128 3130 3130 3130 3131
3094 3091 3089 3088 3087 3087 3086 3085 3085 3086 3087 3089 3089 3089 3090 3091 3092 3094 3096 3099 3101 3104 3107 3109 3112 3115 3118 3120 3123 3125 3127 3129 3131 3132 3131 3129 3131 3122 3122 3123 3123 3125 3126 3127 3127
3096 3092 3090 3088 3088 3088 3087 3086 3087 3085 3091 3091 3090 3090 3092 3094 3095 3096 3097 3100 3102 3105 3106 3108 3111 3113 3116 3119 3122 3125 3126 3129 3134 3134 3130 3126 3127 3120 3119 3120 3121 3122 3123 3124 3125
3098 3095 3091 3089 3089 3089 3088 3089 3088 3090 3089 3091 3091 3092 3094 3095 3097 3098 3099 3101 3103 3104 3106 3108 3112 3113 3114 3117 3120 3122 3125 3125 3132 3133 3126 3125 3120 3116 3116 3116 3118 3119 3120 3121 3121
3101 3098 3095 3090 3089 3089 3090 3089 3091 3092 3093 3094 3095 3095 3095 3096 3098 3098 3100 3102 3103 3104 3106 3107 3108 3111 3113 3116 3120 3121 3123 3125 3126 3127 3127 3121 3117 3116 3114 3115 3116 3116 3117 3117 3117
3104 3101 3097 3094 3091 3091 3091 3090 3092 3093 3095 3096 3096 3097 3098 3098 3099 3099 3101 3102 3103 3104 3105 3106 3107 3110 3112 3115 3117 3119 3121 3124 3125 3127 3126 3117 3114 3111 3111 3112 3112 3113 3114 3114 3114
3107 3103 3101 3098 3095 3093 3092 3093 3096 3097 3098 3098 3097 3097 3097 3097 3098 3100 3101 3102 3102 3103 3105 3106 3107 3110 3112 3113 3114 3117 3118 3120 3122 3122 3121 3121 3111 3109 3108 3109 3110 3110 3110 3111 3112
3110 3106 3103 3101 3100 3097 3096 3094 3095 3096 3096 3097 3098 3098 3098 3099 3099 3099 3099 3100 3101 3102 3104 3105 3106 3107 3109 3109 3111 3112 3113 3116 3117 3117 3116 3114 3106 3105 3106 3107 3108 3108 3109 3108 3107
3111 3109 3106 3103 3102 3100 3100 3099 3098 3097 3096 3096 3096 3097 3098 3099 3101 3100 3100 3101 3101 3102 3103 3103 3104 3105 3107 3110 3107 3107 3108 3110 3112 3112 3109 3110 3104 3103 3103 3104 3104 3104 3104 3103 3102
3112 3110 3108 3106 3103 3101 3100 3100 3099 3098 3098 3097 3097 3096 3097 3097 3098 3098 3099 3100 3100 3101 3102 3103 3102 3103 3103 3104 3104 3104 3105 3106 3108 3108 3102 3099 3098 3100 3100 3100 3100 3099 3098 3097 3096
3112 3110 3108 3107 3104 3102 3100 3099 3099 3098 3098 3097 3097 3097 3097 3096 3096 3096 3096 3097 3098 3099 3099 3100 3099 3100 3100 3100 3099 3099 3100 3100 3099 3099 3097 3094 3094 3096 3095 3095 3095 3094 3093 3092 3091
3112 3110 3108 3105 3104 3102 3100 3099 3098 3098 3098 3097 3096 3096 3096 3096 3096 3096 3095 3096 3096 3096 3096 3096 3096 3095 3095 3095 3095 3093 3094 3094 3093 3091 3089 3088 3087 3087 3088 3087 3088 3088 3087 3086 3085
3110 3109 3107 3105 3103 3102 3100 3098 3097 3096 3096 3095 3095 3095 3094 3094 3093 3093 3093 3094 3094 3094 3094 3094 3093 3093 3091 3090 3090 3087 3083 3083 3082 3081 3082 3081 3082 3082 3081 3081 3081 3081 3080 3078 3077
Wind_Speed
24 22 23 12 9 11 9 11 15 18 21 23 22 24 17 16 22 25 28 25 29 30 34 37 38 37 36 33 29 26 24 23 19 17 15 15 15 11 9 9 7 8 7 5 3
21 20 21 14 5 9 10 11 10 13 15 19 23 24 21 19 21 25 22 25 28 28 32 35 37 37 36 34 32 30 28 23 18 18 17 13 13 10 9 10 9 9 8 6 5
20 18 18 14 6 5 6 9 11 10 12 12 17 18 19 21 21 18 24 23 26 29 32 35 36 37 36 36 34 32 30 23 16 19 19 17 14 13 10 11 10 9 8 7 6
22 18 18 16 12 7 6 5 7 8 10 12 13 17 20 20 11 16 25 22 26 29 32 35 36 36 36 37 35 31 30 23 17 18 17 16 15 14 11 9 11 12 10 9 8
23 20 19 18 15 13 12 9 9 7 9 11 12 17 19 18 16 14 24 22 25 28 31 33 35 34 34 34 33 31 30 23 21 18 15 16 16 15 13 12 12 13 11 10 9
21 23 19 22 25 26 21 5 7 10 10 10 10 14 17 15 15 9 22 22 23 26 30 32 32 29 31 31 30 30 26 27 24 21 18 18 17 17 16 14 14 15 13 11 9
18 20 18 20 20 23 28 10 6 4 7 11 12 11 12 16 17 10 18 19 20 22 27 28 30 28 29 27 29 21 25 24 24 24 21 18 20 22 17 15 15 15 14 12 12
15 14 16 17 18 18 20 24 7 1 4 10 14 11 10 13 20 12 8 18 18 23 27 30 31 23 23 21 25 17 21 20 25 23 22 22 22 18 20 16 15 16 15 15 14
16 12 15 18 16 18 18 16 17 1 6 10 14 12 8 13 19 17 6 16 18 24 29 29 31 21 22 20 25 18 19 23 20 26 25 22 16 19 17 17 17 16 15 15 15
14 17 17 17 16 17 20 17 13 4 17 13 17 8 11 15 16 15 10 18 22 26 29 25 29 20 22 24 27 20 9 22 22 22 23 26 25 11 16 17 17 19 18 18 18
10 13 15 17 19 21 20 17 17 24 19 10 7 10 15 13 14 16 16 21 24 27 30 23 23 20 22 20 17 18 15 10 20 15 20 22 23 20 19 18 19 18 20 21 21
7 8 10 11 13 13 16 16 28 17 17 21 17 12 10 15 15 17 22 24 27 29 25 23 20 19 20 18 11 18 18 13 8 20 14 18 25 20 24 24 22 22 23 23 23
7 8 7 9 9 10 10 9 11 16 10 20 17 12 12 12 15 17 19 22 24 27 23 24 20 16 18 17 16 12 14 16 8 13 17 16 23 22 23 24 23 23 25 25 23
13 10 10 10 10 11 11 7 3 5 8 9 9 9 11 14 15 14 19 22 21 23 17 16 19 17 14 17 17 10 11 13 13 8 7 9 7 10 19 25 24 24 26 26 22
16 14 12 10 11 11 9 8 3 2 4 4 8 15 11 1 15 17 19 14 15 23 12 9 16 18 13 15 14 8 5 12 14 12 11 12 7 11 18 20 20 21 21 19 17
17 15 14 11 10 9 8 5 3 1 3 5 11 6 2 14 17 16 12 13 17 20 10 12 14 13 11 14 12 6 8 8 8 9 5 14 12 9 15 18 21 18 15 12 10
17 15 14 13 11 10 7 3 3 5 2 4 7 11 14 15 15 12 14 19 13 14 12 16 14 16 14 16 14 12 8 1 1 1 4 5 10 23 11 12 11 9 8 8 9
19 16 13 12 11 12 9 5 7 7 7 9 11 10 10 16 14 9 10 19 12 7 15 11 8 15 14 16 13 16 12 3 6 3 4 7 8 6 11 15 16 12 11 10 12
21 19 12 10 9 9 8 6 4 7 12 9 7 4 13 12 9 10 12 13 11 11 4 8 6 18 13 15 14 13 12 12 2 3 2 5 9 12 13 11 9 9 11 13 13
22 19 18 13 6 8 7 7 7 10 10 5 3 4 5 7 8 10 11 8 11 9 6 6 4 17 12 15 14 10 10 6 7 2 4 5 8 13 7 10 13 10 10 12 12
18 22 19 16 14 5 5 12 12 7 3 1 2 4 6 11 7 8 8 7 12 11 7 6 3 8 14 12 13 16 14 9 6 5 4 2 6 9 11 12 13 13 13 12 14
17 18 18 15 15 10 8 10 8 4 4 4 2 2 7 6 8 8 10 6 11 12 11 9 5 6 11 10 15 17 17 17 9 7 8 5 12 16 12 11 12 13 15 16 15
15 15 14 14 11 12 8 4 2 1 1 2 4 3 2 4 3 8 5 6 8 11 7 9 6 4 3 9 15 18 21 21 21 14 13 5 6 7 10 11 14 16 20 18 18
17 14 13 13 11 9 9 8 6 6 4 2 0 4 5 5 5 3 5 5 6 8 9 6 8 8 5 1 3 7 11 16 22 14 20 27 30 26 22 19 22 20 20 21 21
16 16 14 12 11 10 7 5 5 6 6 6 4 3 3 3 5 6 7 7 7 8 9 9 9 12 14 15 16 17 18 17 23 27 24 29 28 26 25 26 23 23 24 25 27
15 16 15 13 11 9 9 7 4 4 5 6 6 6 6 6 6 4 5 7 9 9 11 13 10 11 13 16 19 23 23 25 28 31 34 36 35 34 32 29 24 24 25 29 34
16 15 17 17 13 12 9 8 9 9 7 4 5 7 7 8 8 9 10 10 10 9 10 11 10 8 7 13 13 19 23 24 28 32 31 32 25 25 26 25 25 26 25 23 21
Wind_Direction
2 357 350 347 262 267 271 268 257 247 238 228 222 234 239 232 228 224 224 219 217 215 210 210 209 211 213 215 216 215 214 221 213 217 207 218 227 223 246 252 224 215 226 243 257
8 5 3 12 310 285 271 267 262 255 238 236 233 233 234 226 227 222 210 212 211 211 205 204 204 204 207 210 210 213 218 224 215 217 210 218 226 229 238 239 213 215 239 251 261
18 13 9 12 6 331 290 274 269 253 239 237 234 224 214 224 227 221 210 207 206 206 201 200 200 200 202 205 205 210 218 221 218 216 218 217 217 226 240 243 234 233 247 252 260
20 11 8 13 13 355 322 274 251 239 235 226 218 209 208 218 221 219 205 203 202 202 197 197 196 197 198 202 202 206 215 215 208 215 215 200 205 231 239 244 237 243 243 251 268
19 27 30 24 8 344 311 279 253 232 217 215 206 203 208 213 205 199 199 202 202 202 195 195 194 194 197 200 201 204 211 210 207 208 200 194 209 227 242 241 238 242 247 256 269
24 25 39 44 35 24 12 307 242 226 210 198 200 211 215 206 197 208 195 200 201 201 194 191 188 187 197 199 199 206 209 208 206 208 205 209 219 234 246 247 236 243 252 262 269
25 31 41 30 23 22 33 49 83 187 209 193 189 190 204 198 189 171 196 197 193 197 190 183 183 182 189 196 194 202 209 207 208 216 220 219 228 237 247 240 238 243 250 258 266
15 19 20 26 24 25 25 37 53 35 219 205 167 170 184 191 187 156 175 193 187 185 179 177 176 174 175 185 185 195 200 201 206 210 216 222 237 241 241 239 241 245 251 256 259
18 17 17 27 43 44 40 23 27 39 101 165 147 154 156 180 183 203 162 180 178 176 174 174 171 169 176 179 178 182 200 200 204 215 223 225 239 237 235 235 237 244 247 250 254
36 52 52 53 58 61 62 54 18 14 89 103 123 140 166 167 172 194 179 170 169 170 169 171 172 175 173 178 184 185 177 206 208 217 223 231 237 243 233 227 231 240 247 255 260
20 36 48 62 64 67 69 65 46 68 58 75 133 133 151 160 155 171 166 161 162 167 169 169 174 173 170 184 201 199 192 201 216 219 225 233 241 236 242 233 234 244 251 258 262
345 6 12 27 46 56 60 57 60 44 84 69 117 102 138 149 156 164 158 159 163 164 167 166 177 172 174 178 183 206 210 217 224 217 230 233 242 240 243 245 245 247 253 257 264
353 318 335 346 357 8 35 60 85 72 45 49 59 80 123 147 149 150 153 156 161 166 169 172 177 181 187 192 203 207 215 216 232 220 231 252 261 248 246 248 247 250 255 259 266
16 355 324 319 327 342 355 10 58 88 85 49 71 101 112 122 131 136 148 142 155 169 166 180 186 191 192 200 203 219 223 222 218 217 227 236 280 265 249 248 248 251 256 259 263
26 14 4 336 327 333 349 348 8 101 53 48 105 122 117 140 133 136 136 141 160 169 162 161 184 193 198 200 198 218 219 199 212 231 254 252 261 269 258 251 246 246 250 253 258
28 34 26 13 349 345 2 7 32 47 38 120 135 168 117 132 140 139 148 152 157 165 171 169 173 185 202 197 198 213 197 191 209 231 262 241 227 272 254 253 251 255 251 251 249
24 36 41 30 18 10 12 17 14 51 101 111 124 129 141 151 153 157 157 159 158 169 175 175 175 186 193 194 203 210 191 136 302 266 220 236 237 240 248 253 255 244 227 238 257
15 27 57 47 48 33 32 34 56 62 98 124 135 138 156 165 178 171 174 175 182 171 162 166 177 186 193 195 201 205 203 206 199 195 271 232 242 252 260 253 250 255 248 242 244
17 18 24 53 56 45 44 64 110 103 125 116 109 125 147 162 179 192 189 200 194 195 180 178 179 187 189 195 197 205 215 223 286 299 301 242 268 265 262 252 246 247 248 243 240
27 22 20 21 49 81 77 97 113 129 137 128 126 159 179 192 185 186 185 201 195 202 201 185 151 193 192 201 206 207 206 201 209 181 260 276 268 241 252 246 251 243 239 241 246
31 32 21 28 36 63 94 109 112 107 46 327 205 164 169 170 185 201 203 201 195 197 193 177 189 184 204 214 217 216 216 211 201 217 180 267 251 247 255 247 242 242 239 259 275
20 34 34 24 32 54 89 125 132 111 65 66 84 281 186 205 202 206 212 206 198 199 202 203 201 183 201 213 220 224 225 223 221 219 215 230 263 258 262 261 254 257 272 275 266
9 16 27 33 34 26 38 46 16 14 73 131 135 161 219 225 237 228 237 229 212 208 208 207 213 183 208 234 230 228 229 228 228 237 234 190 258 271 274 270 275 277 280 266 259
10 6 5 15 27 41 26 5 352 343 338 350 224 170 181 207 225 221 236 227 217 217 225 234 240 235 225 244 259 241 247 244 234 239 242 246 262 271 277 278 285 276 264 262 259
5 5 354 349 1 2 18 18 357 341 329 324 309 278 246 235 229 229 222 219 226 229 234 235 250 250 257 265 265 259 255 253 248 252 247 272 275 280 280 286 279 267 264 262 272
345 351 354 336 335 343 345 342 336 325 317 312 299 295 289 277 263 271 251 248 246 242 239 243 258 267 273 266 268 269 263 258 259 258 259 264 277 283 287 282 273 272 265 269 282
335 335 341 337 318 316 320 323 316 311 299 276 284 282 275 273 270 267 263 257 253 257 255 254 256 267 258 267 273 277 269 256 260 261 264 264 282 277 279 276 271 269 272 276 282